www.pogodaiklimat.ru

Погода и климат >> Архив погоды >> Германия >> Маяк Alte Weser


ПОГОДА на Маяке Alte Weser

  • Прогноз погоды на Маяке Alte Weser
  • Монитор погоды на Маяке Alte Weser

АРХИВ ПОГОДЫ на Маяке Alte Weser

Время (UTC), дата Ветер
(напр.,м/с)
 
Видим.   Явления Облачность Т
(С)
Тd
(С)
f
(%)
Тe
(С)
Тes
(С)
Комфортность P
(гПа)
Po
(гПа)
Тmin
(С)
Tmax
(С)
R
(мм)
R24
(мм)
S
(см)
11 15.05 С 3 н/о н/о +10.0 +4.5 69 +8 +8 1029.6 1025.8
12 15.05 С 5 н/о н/о +10.2 +3.3 62 +7 +7 1029.2 1025.3
13 15.05 С 5 н/о н/о +10.7 +3.2 60 +8 +8 1028.8 1025.0
14 15.05 С 6 н/о н/о +10.7 +4.9 67 +8 +8 1028.2 1024.4
15 15.05 С 7 н/о н/о +10.8 +6.5 75 +7 +7 1027.6 1023.8
16 15.05 С 8 н/о н/о +10.9 +6.2 73 +7 +7 1027.1 1023.3
17 15.05 С 9 н/о н/о +11.0 +5.9 71 +7 +7 1026.6 1022.8
18 15.05 С 10 н/о н/о +11.0 +6.2 72 +7 +7 1026.5 1022.7 +9.2 +11.1
19 15.05 С 10 н/о н/о +11.1 +6.6 74 +7 +7 1026.5 1022.7
20 15.05 С 8 н/о н/о +11.2 +7.8 80 +8 +8 1026.7 1022.9
21 15.05 В 7 н/о н/о +12.3 +6.9 70 +10 +10 1026.5 1022.7
22 15.05 СВ 6 н/о н/о +11.9 +7.2 73 +9 +9 1026.2 1022.4
23 15.05 В 7 н/о н/о +11.8 +5.2 64 +9 +9 1026.0 1022.2
00 16.05 В 8 н/о н/о +11.6 +2.9 55 +8 +8 1025.5 1021.7
01 16.05 СВ 8 н/о н/о +11.3 +2.0 53 +8 +8 1025.1 1021.3
02 16.05 С 8 н/о н/о +11.0 +3.5 60 +8 +8 1024.5 1020.7
03 16.05 СВ 8 н/о н/о +10.9 +3.8 62 +7 +7 1024.1 1020.3
04 16.05 СВ 7 н/о н/о +10.9 +4.6 65 +8 +8 1023.7 1020.0
05 16.05 СВ 7 н/о н/о +10.8 +3.5 61 +8 +8 1023.5 1019.7
06 16.05 СВ 7 н/о н/о +10.7 +5.6 71 +7 +7 1023.4 1019.6 +10.6 +12.4
07 16.05 СВ 6 н/о н/о +10.6 +5.8 72 +7 +7 1023.2 1019.4
08 16.05 С 6 н/о н/о +10.4 +6.8 78 +7 +7 1022.7 1018.9
09 16.05 С 7 н/о н/о +10.3 +8.5 89 +7 +7 1022.0 1018.3
10 16.05 С 8 н/о н/о +10.4 +8.5 88 +6 +6 1021.3 1017.6
11 16.05 СВ 8 н/о н/о +11.4 +5.7 68 +8 +8 1020.7 1016.9
12 16.05 СВ 8 н/о н/о +11.5 +4.9 64 +8 +8 1020.5 1016.7
13 16.05 СВ 7 н/о н/о +11.0 +6.6 74 +8 +8 1020.2 1016.5
14 16.05 СВ 7 н/о н/о +10.5 +7.8 83 +7 +7 1019.2 1015.5
15 16.05 С 7 н/о н/о +11.2 +8.2 82 +8 +8 1018.2 1014.4
16 16.05 СВ 10
{13}
н/о н/о +13.5 +7.2 66 +11 +11 1017.1 1013.4
17 16.05 СВ 12
{13}
н/о н/о +13.8 +8.2 69 +11 +11 1016.2 1012.5
18 16.05 СВ 15
{18}
н/о н/о +14.4 +6.7 60 +11 +11 1015.5 1011.8 +10.2 +14.5
19 16.05 СВ 14
{18}
н/о н/о +13.5 +6.5 63 +10 +10 1015.5 1011.8
20 16.05 СВ 13
{17}
н/о н/о +13.0 +6.7 66 +9 +9 1015.1 1011.3
21 16.05 В 13
{18}
н/о н/о +11.9 +7.7 75 +8 +8 1015.2 1011.5
22 16.05 В 11
{15}
н/о н/о +11.8 +7.5 75 +8 +8 1015.2 1011.4
23 16.05 В 9 н/о н/о +11.7 +7.7 76 +8 +8 1014.8 1011.1
00 17.05 В 9
{18}
н/о н/о +11.5 +8.2 80 +8 +8 1014.2 1010.5
01 17.05 СВ 11 н/о н/о +11.4 +8.3 81 +7 +7 1013.2 1009.5
02 17.05 В 10
{14}
н/о н/о +10.9 +8.2 83 +7 +7 1013.0 1009.2
03 17.05 В 10
{14}
н/о н/о +9.9 +9.6 98 +5 +5 1012.6 1008.8
04 17.05 В 10 н/о н/о +9.8 +9.2 96 +5 +5 1012.4 1008.6
05 17.05 В 9 н/о н/о +9.7 +9.7 100 +5 +5 1012.2 1008.4
06 17.05 В 9
{14}
н/о н/о +9.7 +9.6 99 +5 +5 1012.1 1008.3 +9.5 +14.5
07 17.05 В 8 н/о н/о +10.0 +9.7 98 +6 +6 1011.8 1008.1
08 17.05 В 7 н/о н/о +10.6 +9.8 95 +7 +7 1011.8 1008.0
09 17.05 В 6 н/о н/о +10.8 +9.8 94 +7 +7 1012.0 1008.2
10 17.05 В 6 н/о н/о +11.2 +9.8 91 +8 +8 1011.5 1007.7
11 17.05 В 7 н/о н/о +12.2 +9.5 84 +9 +9 1010.9 1007.2
12 17.05 В 7 н/о н/о +12.3 +9.6 84 +9 +9 1010.8 1007.1
13 17.05 СВ 7 н/о н/о +12.1 +10.4 89 +9 +9 1010.2 1006.5
14 17.05 СВ 6 н/о н/о +12.6 +10.2 85 +10 +10 1009.9 1006.2
15 17.05 СВ 6 н/о н/о +12.2 +10.7 91 +9 +9 1009.8 1006.1
16 17.05 В 3 н/о н/о +13.7 +10.2 79 +13 +13 1009.3 1005.6
17 17.05 ЮВ 4 н/о н/о +14.9 +9.1 68 +14 +14 1009.1 1005.4
18 17.05 ЮВ 4 н/о н/о +14.5 +9.1 70 +13 +13 1008.8 1005.1 +9.5 +15.0
19 17.05 ЮВ 4 н/о н/о +14.4 +8.9 70 +13 +13 1008.7 1005.0
20 17.05 В 5 н/о н/о +14.0 +9.8 76 +12 +12 1009.1 1005.4
21 17.05 В 5 н/о н/о +13.9 +8.8 71 +12 +12 1009.0 1005.3
22 17.05 В 5 н/о н/о +13.0 +10.8 86 +11 +11 1008.8 1005.1
23 17.05 В 7 н/о н/о +12.6 +11.4 92 +10 +10 1008.6 1004.9
00 18.05 В 9 н/о н/о +12.5 +11.2 92 +9 +9 1008.3 1004.6
01 18.05 В 6 н/о н/о +12.2 +11.6 96 +9 +9 1008.4 1004.7
02 18.05 В 7 н/о н/о +12.1 +11.6 97 +9 +9 1008.1 1004.4
03 18.05 В 7 н/о н/о +12.0 +11.6 97 +9 +9 1008.1 1004.4
04 18.05 В 6 н/о н/о +11.7 +11.6 99 +9 +9 1007.9 1004.2
05 18.05 В 7 н/о н/о +11.3 +11.3 100 +8 +8 1007.7 1004.0
06 18.05 В 8 н/о н/о +11.2 +11.2 100 +7 +7 1007.8 1004.0 +10.9 +14.9
07 18.05 В 6 н/о н/о +12.1 +11.9 99 +9 +9 1007.9 1004.1
08 18.05 В 7 н/о н/о +13.1 +12.1 94 +10 +10 1007.8 1004.1
09 18.05 В 6 н/о н/о +14.3 +12.4 88 +12 +12 1007.8 1004.1
10 18.05 В 10 н/о н/о +14.8 +12.5 86 +12 +12 1007.6 1003.9
11 18.05 В 8 н/о н/о +16.5 +12.5 77 +15 +15 1007.5 1003.9
12 18.05 СВ 6 н/о н/о +16.0 +12.4 79 +15 +15 1007.4 1003.8
13 18.05 СВ 5 н/о н/о +16.2 +11.9 76 +15 +15 1007.2 1003.6
14 18.05 СВ 6 н/о н/о +16.8 +11.4 70 +16 +16 1007.1 1003.5
15 18.05 СВ 7 н/о н/о +17.2 +11.3 68 +16 +16 1007.0 1003.3
16 18.05 С 7 н/о н/о +18.2 +12.0 67 +18 +18 1006.8 1003.2
17 18.05 С 8 н/о н/о +18.4 +12.6 69 +18 +18 1006.7 1003.1
18 18.05 СВ 10 н/о н/о +16.2 +13.5 84 +14 +14 1006.7 1003.1 +10.9 +18.5
19 18.05 СВ 9 н/о н/о +15.6 +13.2 86 +14 +14 1006.9 1003.2
20 18.05 СВ 10 н/о н/о +15.3 +13.1 87 +13 +13 1007.0 1003.3
21 18.05 СВ 10 н/о н/о +14.6 +13.0 90 +12 +12 1007.1 1003.5
22 18.05 СВ 9 н/о н/о +14.1 +12.7 91 +11 +11 1007.3 1003.6
23 18.05 В 9 н/о н/о +13.5 +12.5 94 +11 +11 1007.3 1003.6
00 19.05 СВ 7 н/о н/о +12.9 +12.2 96 +10 +10 1007.0 1003.3
01 19.05 СВ 6 н/о н/о +12.6 +12.6 100 +10 +10 1007.0 1003.2
02 19.05 СВ 6 н/о н/о +12.4 +12.1 98 +10 +10 1006.6 1002.9
03 19.05 СВ 6 н/о н/о +12.3 +12.3 100 +9 +9 1006.6 1002.9
04 19.05 В 7 н/о н/о +11.4 +11.4 100 +8 +8 1006.7 1002.9
05 19.05 В 8 н/о н/о +11.6 +11.6 100 +8 +8 1006.8 1003.1
06 19.05 В 7 н/о н/о +11.8 +11.8 100 +8 +8 1007.0 1003.3 +11.3 +18.5
07 19.05 В 7 н/о н/о +12.0 +12.0 100 +9 +9 1007.3 1003.6
08 19.05 В 6 н/о н/о +11.9 +11.9 100 +9 +9 1007.3 1003.6
09 19.05 В 6 н/о н/о +12.0 +12.0 100 +9 +9 1007.5 1003.8
10 19.05 В 5 н/о н/о +12.3 +12.3 100 +10 +10 1007.4 1003.7
11 19.05 В 6 н/о н/о +12.5 +12.5 100 +10 +10 1007.3 1003.6
12 19.05 СВ 5 н/о н/о +13.5 +12.5 94 +11 +11 1007.2 1003.5
13 19.05 СВ 5 н/о н/о +13.4 +12.9 97 +11 +11 1006.8 1003.1
14 19.05 С 7 н/о н/о +13.6 +12.9 96 +11 +11 1006.3 1002.6
15 19.05 СВ 8 н/о н/о +15.6 +12.9 84 +14 +14 1006.0 1002.3
16 19.05 СВ 11 н/о н/о +17.8 +13.0 73 +16 +16 1005.4 1001.7
17 19.05 СВ 9 н/о н/о +17.0 +12.9 77 +16 +16 1005.7 1002.0
18 19.05 З 7
{13}
н/о н/о +15.0 +11.3 79 +13 +13 1006.1 1002.4 +11.6 +19.1
19 19.05 С 5 н/о н/о +17.7 +12.9 73 +17 +17 1006.0 1002.3
20 19.05 СВ 4 н/о н/о +15.0 +13.3 90 +14 +14 1006.3 1002.6
21 19.05 СВ 3
{13}
н/о н/о +14.6 +13.8 95 +14 +14 1006.3 1002.6
22 19.05 З 3 н/о н/о +14.4 +13.6 95 +13 +13 1006.7 1003.0
23 19.05 СВ 4 н/о н/о +14.2 +13.3 94 +13 +13 1006.5 1002.8
00 20.05 С 7
{13}
н/о н/о +13.9 +13.0 94 +11 +11 1005.9 1002.2
01 20.05 С 7 н/о н/о +13.3 +12.9 97 +11 +11 1005.9 1002.2
02 20.05 СВ 9 н/о н/о +13.2 +13.1 99 +10 +10 1005.7 1002.0
03 20.05 СВ 6 н/о н/о +12.4 +12.4 100 +10 +10 1005.7 1002.0
04 20.05 СВ 7 н/о н/о +12.7 +11 +11 1005.8 1002.1
05 20.05 СВ 8 н/о н/о +12.6 +10 +10 1005.7 1002.0
06 20.05 В 7 н/о н/о +12.5 +11 +11 1005.9 1002.1 +12.2 +18.9
07 20.05 СВ 6 н/о н/о +12.5 +11 +11 1006.4 1002.7
08 20.05 СВ 7 н/о н/о +12.6 +11 +11 1006.6 1002.9
09 20.05 СВ 5 н/о н/о +12.9 +12.9 100 +11 +11 1006.8 1003.1
10 20.05 СВ 4 н/о н/о +13.4 +13.4 100 +12 +12 1006.8 1003.1
11 20.05 С 4 н/о н/о +13.7 +13.6 99 +12 +12 1007.0 1003.3
12 20.05 СВ 4 н/о н/о +14.6 +13.6 94 +13 +13 1007.2 1003.5
13 20.05 С 6 н/о н/о +13.8 +13.8 100 +12 +12 1007.1 1003.4
14 20.05 С 7 н/о н/о +13.3 +12.8 97 +11 +11 1006.9 1003.2
15 20.05 С 8 н/о н/о +13.0 +12.8 99 +10 +10 1006.6 1002.9
16 20.05 С 10 н/о н/о +13.0 +12.8 99 +10 +10 1006.4 1002.7
17 20.05 С 9 н/о н/о +12.0 +12.0 100 +8 +8 1006.6 1002.9
18 20.05 С 9 н/о н/о +11.7 +11.7 100 +8 +8 1007.0 1003.3 +11.6 +14.8
19 20.05 С 8 н/о н/о +12.2 +12.2 100 +9 +9 1007.1 1003.4
20 20.05 СЗ 8 н/о н/о +12.6 +12.6 100 +9 +9 1007.2 1003.5
21 20.05 СЗ 9 н/о н/о +11.8 +11.8 100 +8 +8 1007.0 1003.3
22 20.05 СЗ 9 н/о н/о +12.4 +12.2 99 +9 +9 1007.1 1003.4
23 20.05 С 10 н/о н/о +13.0 +12.1 94 +10 +10 1007.0 1003.3
00 21.05 С 11 н/о н/о +12.5 +12.2 98 +9 +9 1006.6 1002.9
01 21.05 С 11
{13}
н/о н/о +12.3 +12.2 99 +8 +8 1006.4 1002.7
02 21.05 С 10 н/о н/о +12.3 +12.3 100 +9 +9 1006.6 1002.9
03 21.05 С 8
{13}
н/о н/о +12.1 +12.1 100 +9 +9 1006.9 1003.2
04 21.05 С 9 н/о н/о +11.9 +11.9 100 +8 +8 1007.2 1003.5
05 21.05 С 10 н/о н/о +11.7 +11.7 100 +8 +8 1007.6 1003.9
06 21.05 С 9
{13}
н/о н/о +11.6 +9 +9 1008.0 1004.3 +11.6 +13.5
07 21.05 СЗ 10
{13}
н/о н/о +11.6 +9 +9 1007.9 1004.1
08 21.05 С 11
{13}
н/о н/о +11.7 +11.7 100 +8 +8 1008.6 1004.9
09 21.05 СЗ 12
{14}
н/о н/о +12.1 +12.1 100 +8 +8 1008.6 1004.9
10 21.05 СЗ 12
{13}
н/о н/о +12.0 +11.8 99 +8 +8 1009.0 1005.2
11 21.05 СЗ 11
{13}
н/о н/о +11.7 +11.6 99 +8 +8 1009.3 1005.6
12 21.05 СЗ 11
{14}
н/о н/о +10.9 +10.7 99 +6 +6 1009.5 1005.7
13 21.05 СЗ 10
{13}
н/о н/о +11.0 +10.9 99 +7 +7 1010.0 1006.3
14 21.05 СЗ 11
{13}
н/о н/о +10.9 +10.9 100 +6 +6 1010.3 1006.6
15 21.05 СЗ 10
{13}
н/о н/о +10.9 +10.9 100 +7 +7 1010.5 1006.7
16 21.05 СЗ 10 н/о н/о +10.7 +10.7 100 +6 +6 1010.6 1006.9
17 21.05 СЗ 11
{14}
н/о н/о +10.7 +10.7 100 +6 +6 1010.9 1007.1
18 21.05 СЗ 11
{14}
н/о н/о +10.8 +10.8 100 +6 +6 1011.2 1007.4 +10.5 +12.2
19 21.05 СЗ 12
{14}
н/о н/о +10.8 +10.7 99 +6 +6 1011.8 1008.0
20 21.05 СЗ 13
{15}
н/о н/о +11.0 +10.6 97 +6 +6 1012.3 1008.6
21 21.05 СЗ 13
{15}
н/о н/о +10.7 +10.8 100 +6 +6 1012.8 1009.0
22 21.05 СЗ 12
{15}
н/о н/о +10.7 +10.4 98 +6 +6 1012.7 1009.0
23 21.05 СЗ 12
{15}
н/о н/о +10.8 +10.0 95 +6 +6 1012.7 1009.0
00 22.05 СЗ 12
{15}
н/о н/о +10.6 +10.1 97 +6 +6 1012.8 1009.0
01 22.05 СЗ 12
{15}
н/о н/о +10.4 +9.9 97 +6 +6 1013.0 1009.3
02 22.05 СЗ 12
{15}
н/о н/о +10.3 +9.9 97 +5 +5 1013.4 1009.6
03 22.05 СЗ 13
{15}
н/о н/о +10.2 +9.8 97 +5 +5 1013.6 1009.9
04 22.05 СЗ 12
{15}
н/о н/о +10.5 +9.4 93 +6 +6 1014.1 1010.4
05 22.05 СЗ 12
{16}
н/о н/о +10.6 +9.2 91 +6 +6 1014.6 1010.8
06 22.05 СЗ 11
{16}
н/о н/о +10.7 +9.4 92 +6 +6 1015.2 1011.4 +10.0 +11.1
07 22.05 СЗ 12
{15}
н/о н/о +10.8 +8.1 83 +6 +6 1015.7 1012.0
08 22.05 СЗ 11
{13}
н/о н/о +10.7 +8.4 86 +6 +6 1016.1 1012.4
09 22.05 З 9
{15}
н/о н/о +10.9 +8.5 85 +7 +7 1016.7 1013.0
10 22.05 З 10
{13}
н/о н/о +10.8 +8.1 83 +7 +7 1017.1 1013.4

 

Местоположение метеостанции Маяк Alte Weser (Германия): широта 53.87 долгота 8.13 высота над уровнем моря 32 м.

В архиве по умолчанию представлена погода на Маяке Alte Weser за последнюю неделю. Архивные данные за месяц целиком и за предыдущие месяцы, начиная с января 2011 года, Вы можете получить, выбрав интересующий диапазон дат из раскрывающегося списка и нажав кнопку "Ввод!".


*Определитесь, кто Вы:
робот инопланетянин человек

Внимание! Время в таблицах - всемирное. Для получения местного времени необходимо прибавить поправку, которая равна 1 ч.

Смотрите также архив погоды в соседних городах и на ближайших метеорологических станциях:

Погода в Нордхольце (Германия) (37 км)
Погода в Куксхавене (Германия) (37 км)
Погода в Гельголанде (Германия) (38 км)
Погода на Базе ВВС Wittmundhaven (Германия) (47 км)
Погода в Бремерхафене (Германия) (48 км)
Погода на Станции Ufs Deutsche Bucht (Германия) (57 км)
Погода в Санкт-Петер-Ординге (Германия) (60 км)
Погода в Эльперсбюттеле (Германия) (62 км)
Погода на Острове Норденей (Германия) (67 км)
Погода в Бремерфёрде (Германия) (80 км)

Пояснения к столбцам:

Ветер - указаны скорость ветра в м/с - средняя за 10 мин, порывы в срок и между сроками (в фигурных скобках) и направление, откуда дует ветер: С - северный, СВ - северо-восточный, В - восточный, ЮВ - юго-восточный, Ю - южный, ЮЗ - юго-западный, З - западный, СЗ - северо-западный.
Видимость - горизонтальная дальность видимости в метрах или километрах. При видимости от 1 до 10 км при отсутствии осадков обычно наблюдается дымка, при ухудшении видимости до 1 км и менее - туман. В сухую погоду видимость может ухудшаться дымом, пылью или мглою.
Явления - указаны атмосферные явления, наблюдавшиеся в срок или в последний час перед сроком; фигурными скобками обозначены явления, наблюдавшиеся между сроками (за 1-3 часа до срока); квадратными скобками обозначены град или гололедные отложения с указанием их диаметра в мм.
Облачность - указаны через наклонную черту общая и нижняя облачность в баллах и высота нижней границы облаков в метрах; квадратными скобками обозначены формы облаков: Ci - перистые, Cs - перисто-слоистые, Cc - перисто-кучевые, Ac - высококучевые, As - высокослоистые, Sc - слоисто-кучевые, Ns - слоисто-дождевые, Cu - кучевые, Cb - кучево-дождевые. Подробнее классификацию облаков см. в Атласе облаков (PDF).
T - Температура воздуха - температура, измеренная на высоте 2 м над землей.
Td - Температура точки росы - температура, при понижении до которой содержащийся в воздухе водяной пар достигнет насыщения.
f - Относительная влажность воздуха - влажноcть воздуха, измеренная на высоте 2 м над землей.
Te - Эффективная температура - температура, которую ощущает одетый по сезону человек в тени. Характеристика душности погоды. При расчете учитывается влияние влажности воздуха и скорости ветра на теплоощущения человека.
Tes - Эффективная температура на солнце - температура, которую ощущает человек, с поправкой на солнечный нагрев. Характеристика знойности погоды. Зависит от высоты солнца над горизонтом, облачности и скорости ветра. Ночью, в пасмурную погоду, а также при ветре 12 м/с и более поправка равна нулю.
P - Атмосферное давление - приведенное к уровню моря атмосферное давление.
Po - Атмосферное давление - измеренное на уровне метеостанции атмосферное давление.
Tmin - Минимальная температура - минимум температуры воздуха на высоте 2 м над землей.
Tmax - Максимальная температура - максимум температуры воздуха на высоте 2 м над землей.
R - Количество осадков - Количество выпавших осадков за период времени, мм. При наведении курсора мыши на число - период времени, за который выпало указанное количество осадков.
R24 - Количество осадков - Количество выпавших осадков за 24 часа, мм.
S - Снежный покров - Высота снежного покрова, см. При наведении курсора мыши на число - состояние снежного покрова и степень покрытия местности в баллах.